Weather History for Elizabeth City, NC

Change the Weather History Date:

Wednesday, November 7, 2012

  Actual Average Record
Temperature  
Mean Temperature 48 °F 56 °F  
Max Temperature 50 °F 67 °F 81 °F (1938)
Min Temperature 45 °F 45 °F 25 °F (1962)
Degree Days  
Heating Degree Days 17 10  
Month to date heating degree days 113 64  
Since 1 July heating degree days 198 215  
Cooling Degree Days 0 0  
Month to date cooling degree days 0 4  
Year to date cooling degree days 2233 1585  
Moisture  
Dew Point 40 °F    
Average Humidity 76    
Maximum Humidity 86    
Minimum Humidity 65    
Precipitation  
Precipitation 0.16 in 0.12 in 1.54 in (2006)
Month to date precipitation 0.22 0.79  
Year to date precipitation 43.78 41.75  
Snow  
Snow 0.00 in - 0.00 in (2002)
Month to date snowfall 0.0  
Since 1 July snowfall 0.0  
Snow Depth 0.00 in    
Sea Level Pressure  
Sea Level Pressure 29.82 in    
Wind  
Wind Speed 15 mph (NNW)    
Max Wind Speed 24 mph    
Max Gust Speed 30 mph    
Visibility 10 miles    
Events Rain    
T = Trace of Precipitation, MM = Missing Value Source: NWS Daily Summary

Daily Weather History Graph

Daily Weather History Graph

Search for Another Location

Airport:

Trip Planner

Search our weather history database for the weather conditions in past years. The results will help you decide how hot, cold, wet, or windy it might be!

Date:

Astronomy

Nov. 07, 2012 Rise Set
Actual Time 6:34 AM EST 5:02 PM EST
Civil Twilight 6:07 AM EST 5:29 PM EST
Nautical Twilight 5:36 AM EST 5:59 PM EST
Astronomical Twilight 5:06 AM EST 6:30 PM EST
Moon No Moon Rise 12:59 PM EST (11/7)
Length of Visible Light 11h 22m
Length of Day
10h 28m
Last Quarter, 43% of the Moon is Illuminated
Nov 7
Last Quarter
Nov 13
New
Nov 20
First Quarter
Nov 28
Full
Dec 6
Last Quarter

Hourly Weather History & Observations

Time (EST) Temp. Windchill Dew Point Humidity Pressure Visibility Wind Dir Wind Speed Gust Speed Precip Events Conditions
12:54 AM 48.9 °F - 45.0 °F 86% 29.81 in 3.0 mi NW 12.7 mph - 0.08 in Rain Rain
1:54 AM 50.0 °F - 46.0 °F 86% 29.78 in 7.0 mi North 17.3 mph - 0.08 in Rain Light Rain
2:54 AM 50.0 °F - 45.0 °F 83% 29.78 in 10.0 mi NNW 18.4 mph 27.6 mph 0.00 in   Overcast
3:54 AM 48.9 °F - 44.1 °F 83% 29.78 in 6.0 mi NNW 19.6 mph - N/A   Haze
4:54 AM 48.0 °F - 43.0 °F 83% 29.79 in 10.0 mi NNW 21.9 mph 28.8 mph 0.00 in   Overcast
5:01 AM 48.2 °F - 42.8 °F 82% 29.79 in 10.0 mi NNW 21.9 mph - N/A   Overcast
5:54 AM 48.0 °F - 43.0 °F 83% 29.80 in 10.0 mi NNW 18.4 mph 26.5 mph N/A   Overcast
6:54 AM 46.9 °F - 42.1 °F 83% 29.80 in 10.0 mi NNW 18.4 mph 27.6 mph 0.00 in Rain Light Rain
7:54 AM 46.9 °F - 41.0 °F 80% 29.81 in 10.0 mi NNW 13.8 mph 24.2 mph 0.00 in   Overcast
8:54 AM 46.9 °F - 42.1 °F 83% 29.81 in 10.0 mi NNW 18.4 mph 23.0 mph N/A   Overcast
9:54 AM 48.0 °F - 42.1 °F 80% 29.81 in 10.0 mi NNW 18.4 mph 24.2 mph N/A   Overcast
10:54 AM 48.9 °F - 41.0 °F 74% 29.82 in 10.0 mi NW 17.3 mph 25.3 mph N/A   Overcast
11:54 AM 48.9 °F - 41.0 °F 74% 29.80 in 10.0 mi NNW 18.4 mph - N/A   Overcast
12:54 PM 48.9 °F - 41.0 °F 74% 29.79 in 10.0 mi NNW 13.8 mph - N/A   Overcast
1:54 PM 50.0 °F - 39.9 °F 68% 29.79 in 10.0 mi NNW 18.4 mph - N/A   Overcast
2:54 PM 50.0 °F - 39.0 °F 66% 29.80 in 10.0 mi NNW 16.1 mph - N/A   Overcast
3:54 PM 50.0 °F - 39.0 °F 66% 29.81 in 10.0 mi NNW 13.8 mph - N/A   Overcast
4:54 PM 48.9 °F - 39.0 °F 69% 29.82 in 10.0 mi NW 12.7 mph 20.7 mph N/A   Overcast
5:54 PM 48.0 °F - 37.9 °F 68% 29.83 in 10.0 mi NW 10.4 mph - N/A   Mostly Cloudy
6:44 PM 48.2 °F - 37.4 °F 66% 29.84 in 10.0 mi NW 15.0 mph - N/A   Overcast
6:54 PM 48.0 °F - 37.9 °F 68% 29.84 in 10.0 mi NW 12.7 mph - N/A   Overcast
7:54 PM 46.9 °F - 37.0 °F 68% 29.85 in 10.0 mi WNW 9.2 mph - N/A   Overcast
8:54 PM 46.9 °F - 36.0 °F 66% 29.87 in 10.0 mi NW 10.4 mph - N/A   Overcast
9:54 PM 46.9 °F - 36.0 °F 66% 29.88 in 10.0 mi NW 10.4 mph - N/A   Overcast
10:54 PM 46.0 °F 43.1 °F 36.0 °F 68% 29.88 in 10.0 mi WNW 5.8 mph - N/A   Overcast
11:54 PM 45.0 °F 41.8 °F 36.0 °F 71% 29.88 in 10.0 mi NW 5.8 mph - N/A   Overcast